Time,TemperatureF,DewpointF,PressureIn,WindDirection,WindDirectionDegrees,WindSpeedMPH,WindSpeedGustMPH,Humidity,HourlyPrecipIn,Conditions,Clouds,dailyrainin,SolarRadiationWatts/m^2,SoftwareType,DateUTC
2013-09-14 00:03:00,59.3,51.7,29.89,SSE,164,9.0,10.0,76,0.00,,,0.00,0,Wunderground v.1.15,2013-09-14 05:03:00,
2013-09-14 00:09:00,59.0,51.4,29.89,SSE,163,7.0,10.0,76,0.00,,,0.00,0,Wunderground v.1.15,2013-09-14 05:09:00,
2013-09-14 00:14:00,58.7,51.5,29.89,SSE,159,6.0,8.0,77,0.00,,,0.00,0,Wunderground v.1.15,2013-09-14 05:14:00,
2013-09-14 00:19:00,58.5,51.3,29.89,SSE,159,7.0,9.0,77,0.00,,,0.00,0,Wunderground v.1.15,2013-09-14 05:19:00,
2013-09-14 00:24:00,58.5,51.3,29.88,SSE,156,9.0,10.0,77,0.00,,,0.00,0,Wunderground v.1.15,2013-09-14 05:24:00,
2013-09-14 00:29:00,58.3,51.5,29.88,SSE,153,7.0,10.0,78,0.00,,,0.00,0,Wunderground v.1.15,2013-09-14 05:29:00,
2013-09-14 00:35:00,58.4,51.6,29.88,SSE,155,4.0,10.0,78,0.00,,,0.00,0,Wunderground v.1.15,2013-09-14 05:35:00,
2013-09-14 00:40:00,58.4,51.6,29.88,SSE,153,5.0,6.0,78,0.00,,,0.00,0,Wunderground v.1.15,2013-09-14 05:40:00,
2013-09-14 00:45:00,58.3,51.5,29.88,SSE,155,5.0,6.0,78,0.00,,,0.00,0,Wunderground v.1.15,2013-09-14 05:45:00,
2013-09-14 00:50:00,58.4,51.6,29.88,SSE,164,6.0,6.0,78,0.00,,,0.00,0,Wunderground v.1.15,2013-09-14 05:50:00,
2013-09-14 00:56:00,58.8,51.6,29.89,SSE,164,9.0,11.0,77,0.00,,,0.00,0,Wunderground v.1.15,2013-09-14 05:56:00,
2013-09-14 01:01:00,58.8,51.6,29.89,SSE,166,7.0,8.0,77,0.00,,,0.00,0,Wunderground v.1.15,2013-09-14 06:01:00,
2013-09-14 01:06:00,59.0,51.8,29.89,South,188,11.0,11.0,77,0.00,,,0.00,0,Wunderground v.1.15,2013-09-14 06:06:00,
2013-09-14 01:11:00,59.0,51.8,29.89,South,190,9.0,11.0,77,0.00,,,0.00,0,Wunderground v.1.15,2013-09-14 06:11:00,
2013-09-14 01:16:00,59.0,51.8,29.89,South,170,5.0,11.0,77,0.00,,,0.00,0,Wunderground v.1.15,2013-09-14 06:16:00,
2013-09-14 01:22:00,58.9,51.7,29.89,South,187,9.0,10.0,77,0.00,,,0.00,0,Wunderground v.1.15,2013-09-14 06:22:00,
2013-09-14 01:27:00,59.0,51.8,29.88,South,169,9.0,10.0,77,0.00,,,0.00,0,Wunderground v.1.15,2013-09-14 06:27:00,
2013-09-14 01:32:00,59.1,51.9,29.88,South,176,7.0,8.0,77,0.00,,,0.00,0,Wunderground v.1.15,2013-09-14 06:32:00,
2013-09-14 01:37:00,59.4,52.2,29.88,SSW,198,8.0,8.0,77,0.00,,,0.00,0,Wunderground v.1.15,2013-09-14 06:37:00,
2013-09-14 01:42:00,59.8,52.2,29.88,South,187,11.0,11.0,76,0.00,,,0.00,0,Wunderground v.1.15,2013-09-14 06:42:00,
2013-09-14 01:48:00,60.2,52.6,29.88,SSW,198,8.0,11.0,76,0.00,,,0.00,0,Wunderground v.1.15,2013-09-14 06:48:00,
2013-09-14 01:53:00,60.4,52.4,29.89,South,171,9.0,12.0,75,0.00,,,0.00,0,Wunderground v.1.15,2013-09-14 06:53:00,
2013-09-14 01:58:00,60.7,52.4,29.88,South,182,10.0,12.0,74,0.00,,,0.00,0,Wunderground v.1.15,2013-09-14 06:58:00,
2013-09-14 02:03:00,60.7,52.4,29.88,South,171,9.0,11.0,74,0.00,,,0.00,0,Wunderground v.1.15,2013-09-14 07:03:00,
2013-09-14 02:08:00,60.7,52.4,29.88,South,185,8.0,14.0,74,0.00,,,0.00,0,Wunderground v.1.15,2013-09-14 07:08:00,
2013-09-14 02:13:00,60.6,52.6,29.88,South,190,9.0,11.0,75,0.00,,,0.00,0,Wunderground v.1.15,2013-09-14 07:13:00,
2013-09-14 02:18:00,60.5,52.5,29.88,South,177,6.0,11.0,75,0.00,,,0.00,0,Wunderground v.1.15,2013-09-14 07:18:00,
2013-09-14 02:23:00,60.4,52.4,29.88,South,182,10.0,10.0,75,0.00,,,0.00,0,Wunderground v.1.15,2013-09-14 07:23:00,
2013-09-14 02:28:00,60.4,52.4,29.88,South,180,9.0,12.0,75,0.00,,,0.00,0,Wunderground v.1.15,2013-09-14 07:28:00,
2013-09-14 02:33:00,60.5,52.5,29.88,South,184,7.0,13.0,75,0.00,,,0.00,0,Wunderground v.1.15,2013-09-14 07:33:00,
2013-09-14 02:38:00,60.5,52.5,29.88,South,185,7.0,13.0,75,0.00,,,0.00,0,Wunderground v.1.15,2013-09-14 07:38:00,
2013-09-14 02:43:00,60.5,52.5,29.88,SSW,196,7.0,11.0,75,0.00,,,0.00,0,Wunderground v.1.15,2013-09-14 07:43:00,
2013-09-14 02:48:00,60.5,52.5,29.88,South,186,8.0,12.0,75,0.00,,,0.00,0,Wunderground v.1.15,2013-09-14 07:48:00,
2013-09-14 02:53:00,60.5,52.5,29.88,South,181,10.0,13.0,75,0.00,,,0.00,0,Wunderground v.1.15,2013-09-14 07:53:00,
2013-09-14 02:58:00,60.4,52.8,29.88,South,189,10.0,13.0,76,0.00,,,0.00,0,Wunderground v.1.15,2013-09-14 07:58:00,
2013-09-14 03:03:00,60.4,52.8,29.88,South,182,7.0,11.0,76,0.00,,,0.00,0,Wunderground v.1.15,2013-09-14 08:03:00,
2013-09-14 03:08:00,60.4,52.8,29.88,South,188,8.0,13.0,76,0.00,,,0.00,0,Wunderground v.1.15,2013-09-14 08:08:00,
2013-09-14 03:13:00,60.4,52.8,29.87,South,189,9.0,12.0,76,0.00,,,0.00,0,Wunderground v.1.15,2013-09-14 08:13:00,
2013-09-14 03:18:00,60.4,52.8,29.87,SSW,192,7.0,12.0,76,0.00,,,0.00,0,Wunderground v.1.15,2013-09-14 08:18:00,
2013-09-14 03:23:00,60.5,52.5,29.87,South,178,10.0,13.0,75,0.00,,,0.00,0,Wunderground v.1.15,2013-09-14 08:23:00,
2013-09-14 03:28:00,60.5,52.5,29.87,South,187,9.0,13.0,75,0.00,,,0.00,0,Wunderground v.1.15,2013-09-14 08:28:00,
2013-09-14 03:33:00,60.5,52.5,29.86,South,171,8.0,14.0,75,0.00,,,0.00,0,Wunderground v.1.15,2013-09-14 08:33:00,
2013-09-14 03:38:00,60.6,52.3,29.86,South,170,7.0,16.0,74,0.00,,,0.00,0,Wunderground v.1.15,2013-09-14 08:38:00,
2013-09-14 03:43:00,60.5,52.2,29.86,South,173,8.0,14.0,74,0.00,,,0.00,0,Wunderground v.1.15,2013-09-14 08:43:00,
2013-09-14 03:48:00,60.4,52.1,29.86,South,175,7.0,14.0,74,0.00,,,0.00,0,Wunderground v.1.15,2013-09-14 08:48:00,
2013-09-14 03:53:00,60.3,52.3,29.86,South,174,5.0,10.0,75,0.00,,,0.00,0,Wunderground v.1.15,2013-09-14 08:53:00,
2013-09-14 03:58:00,60.2,52.2,29.86,South,184,9.0,12.0,75,0.00,,,0.00,0,Wunderground v.1.15,2013-09-14 08:58:00,
2013-09-14 04:03:00,60.3,52.3,29.86,South,190,6.0,14.0,75,0.00,,,0.00,0,Wunderground v.1.15,2013-09-14 09:03:00,
2013-09-14 04:08:00,60.3,52.3,29.86,SSE,168,7.0,14.0,75,0.00,,,0.00,0,Wunderground v.1.15,2013-09-14 09:08:00,
2013-09-14 04:13:00,60.0,52.1,29.85,South,181,8.0,13.0,75,0.00,,,0.00,0,Wunderground v.1.15,2013-09-14 09:13:00,
2013-09-14 04:18:00,60.0,52.1,29.85,SSE,161,10.0,15.0,75,0.00,,,0.00,0,Wunderground v.1.15,2013-09-14 09:18:00,
2013-09-14 04:23:00,60.2,51.9,29.85,South,184,12.0,15.0,74,0.00,,,0.00,0,Wunderground v.1.15,2013-09-14 09:23:00,
2013-09-14 04:28:00,60.2,51.9,29.84,South,175,8.0,15.0,74,0.00,,,0.00,0,Wunderground v.1.15,2013-09-14 09:28:00,
2013-09-14 04:33:00,60.0,52.1,29.84,SSW,202,9.0,15.0,75,0.00,,,0.00,0,Wunderground v.1.15,2013-09-14 09:33:00,
2013-09-14 04:38:00,60.0,52.1,29.84,SSE,168,10.0,17.0,75,0.00,,,0.00,0,Wunderground v.1.15,2013-09-14 09:38:00,
2013-09-14 04:44:00,60.0,52.1,29.84,South,188,15.0,16.0,75,0.00,,,0.00,0,Wunderground v.1.15,2013-09-14 09:44:00,
2013-09-14 04:49:00,59.9,52.0,29.84,South,170,9.0,16.0,75,0.00,,,0.00,0,Wunderground v.1.15,2013-09-14 09:49:00,
2013-09-14 04:54:00,59.9,52.3,29.84,South,175,10.0,17.0,76,0.00,,,0.00,0,Wunderground v.1.15,2013-09-14 09:54:00,
2013-09-14 04:59:00,59.9,51.6,29.84,South,175,10.0,17.0,74,0.00,,,0.00,0,Wunderground v.1.15,2013-09-14 09:59:00,
2013-09-14 05:04:00,60.0,51.7,29.83,SSE,163,13.0,18.0,74,0.00,,,0.00,0,Wunderground v.1.15,2013-09-14 10:04:00,
2013-09-14 05:09:00,60.0,51.7,29.83,South,190,12.0,18.0,74,0.00,,,0.00,0,Wunderground v.1.15,2013-09-14 10:09:00,
2013-09-14 05:14:00,59.9,51.6,29.83,South,171,9.0,17.0,74,0.00,,,0.00,0,Wunderground v.1.15,2013-09-14 10:14:00,
2013-09-14 05:19:00,60.0,51.7,29.83,South,178,9.0,19.0,74,0.00,,,0.00,0,Wunderground v.1.15,2013-09-14 10:19:00,
2013-09-14 05:24:00,60.0,51.3,29.83,South,171,12.0,16.0,73,0.00,,,0.00,0,Wunderground v.1.15,2013-09-14 10:24:00,
2013-09-14 05:29:00,59.9,51.2,29.83,South,181,13.0,18.0,73,0.00,,,0.00,0,Wunderground v.1.15,2013-09-14 10:29:00,
2013-09-14 05:34:00,59.8,51.1,29.83,SSE,165,9.0,13.0,73,0.00,,,0.00,0,Wunderground v.1.15,2013-09-14 10:34:00,
2013-09-14 05:39:00,59.7,51.4,29.83,South,187,8.0,14.0,74,0.00,,,0.00,0,Wunderground v.1.15,2013-09-14 10:39:00,
2013-09-14 05:44:00,59.5,51.2,29.83,SSW,192,12.0,16.0,74,0.00,,,0.00,0,Wunderground v.1.15,2013-09-14 10:44:00,
2013-09-14 05:49:00,59.3,51.4,29.83,South,186,9.0,16.0,75,0.00,,,0.00,0,Wunderground v.1.15,2013-09-14 10:49:00,
2013-09-14 05:54:00,59.2,51.3,29.83,South,179,6.0,13.0,75,0.00,,,0.00,0,Wunderground v.1.15,2013-09-14 10:54:00,
2013-09-14 05:59:00,59.2,51.3,29.83,South,188,11.0,13.0,75,0.00,,,0.00,0,Wunderground v.1.15,2013-09-14 10:59:00,
2013-09-14 06:04:00,59.2,51.3,29.83,SSW,193,8.0,12.0,75,0.00,,,0.00,0,Wunderground v.1.15,2013-09-14 11:04:00,
2013-09-14 06:09:00,59.3,51.0,29.83,SSW,192,7.0,12.0,74,0.00,,,0.00,0,Wunderground v.1.15,2013-09-14 11:09:00,
2013-09-14 06:14:00,59.4,50.7,29.83,South,179,10.0,14.0,73,0.00,,,0.00,0,Wunderground v.1.15,2013-09-14 11:14:00,
2013-09-14 06:19:00,59.5,50.8,29.83,SSW,199,14.0,17.0,73,0.00,,,0.00,0,Wunderground v.1.15,2013-09-14 11:19:00,
2013-09-14 06:24:00,59.6,50.6,29.83,South,184,11.0,15.0,72,0.00,,,0.00,0,Wunderground v.1.15,2013-09-14 11:24:00,
2013-09-14 06:29:00,59.7,50.7,29.83,SSW,192,12.0,15.0,72,0.00,,,0.00,0,Wunderground v.1.15,2013-09-14 11:29:00,
2013-09-14 06:34:00,59.7,50.7,29.83,South,188,12.0,15.0,72,0.00,,,0.00,0,Wunderground v.1.15,2013-09-14 11:34:00,
2013-09-14 06:39:00,59.6,50.6,29.83,South,173,10.0,15.0,72,0.00,,,0.00,0,Wunderground v.1.15,2013-09-14 11:39:00,
2013-09-14 06:44:00,59.4,50.7,29.82,South,181,10.0,13.0,73,0.00,,,0.00,0,Wunderground v.1.15,2013-09-14 11:44:00,
2013-09-14 06:49:00,59.3,50.3,29.82,South,188,12.0,13.0,72,0.00,,,0.00,0,Wunderground v.1.15,2013-09-14 11:49:00,
2013-09-14 06:54:00,59.3,50.6,29.82,SSW,193,12.0,18.0,73,0.00,,,0.00,0,Wunderground v.1.15,2013-09-14 11:54:00,
2013-09-14 06:59:00,59.3,50.3,29.82,South,169,13.0,20.0,72,0.00,,,0.00,0,Wunderground v.1.15,2013-09-14 11:59:00,
2013-09-14 07:05:00,59.4,50.7,29.82,South,173,13.0,14.0,73,0.00,,,0.00,0,Wunderground v.1.15,2013-09-14 12:05:00,
2013-09-14 07:10:00,59.3,50.6,29.82,SSW,196,8.0,12.0,73,0.00,,,0.00,0,Wunderground v.1.15,2013-09-14 12:10:00,
2013-09-14 07:15:00,59.3,50.6,29.82,South,177,16.0,18.0,73,0.00,,,0.00,0,Wunderground v.1.15,2013-09-14 12:15:00,
2013-09-14 07:20:00,59.5,50.8,29.82,South,169,14.0,19.0,73,0.00,,,0.00,5,Wunderground v.1.15,2013-09-14 12:20:00,
2013-09-14 07:25:00,59.6,50.9,29.82,South,169,8.0,20.0,73,0.00,,,0.00,5,Wunderground v.1.15,2013-09-14 12:25:00,
2013-09-14 07:30:00,59.6,50.9,29.83,South,182,11.0,20.0,73,0.00,,,0.00,7,Wunderground v.1.15,2013-09-14 12:30:00,
2013-09-14 07:35:00,59.5,50.8,29.82,South,169,11.0,15.0,73,0.00,,,0.00,7,Wunderground v.1.15,2013-09-14 12:35:00,
2013-09-14 07:40:00,59.5,51.2,29.82,South,180,12.0,16.0,74,0.00,,,0.00,7,Wunderground v.1.15,2013-09-14 12:40:00,
2013-09-14 07:45:00,59.4,51.1,29.82,South,175,10.0,18.0,74,0.00,,,0.00,9,Wunderground v.1.15,2013-09-14 12:45:00,
2013-09-14 07:50:00,59.3,51.0,29.82,South,170,13.0,18.0,74,0.00,,,0.00,9,Wunderground v.1.15,2013-09-14 12:50:00,
2013-09-14 07:55:00,59.4,50.7,29.82,SSW,197,12.0,20.0,73,0.00,,,0.00,11,Wunderground v.1.15,2013-09-14 12:55:00,
2013-09-14 08:00:00,59.3,51.0,29.82,South,170,10.0,11.0,74,0.00,,,0.00,14,Wunderground v.1.15,2013-09-14 13:00:00,
2013-09-14 08:05:00,59.3,51.0,29.82,SSW,194,10.0,16.0,74,0.00,,,0.00,19,Wunderground v.1.15,2013-09-14 13:05:00,
2013-09-14 08:10:00,59.3,51.0,29.82,South,188,10.0,11.0,74,0.00,,,0.00,19,Wunderground v.1.15,2013-09-14 13:10:00,
2013-09-14 08:15:00,59.3,51.4,29.82,South,189,10.0,15.0,75,0.00,,,0.00,18,Wunderground v.1.15,2013-09-14 13:15:00,
2013-09-14 08:20:00,59.3,51.4,29.82,South,180,11.0,12.0,75,0.00,,,0.00,19,Wunderground v.1.15,2013-09-14 13:20:00,
2013-09-14 08:25:00,59.5,51.2,29.82,South,187,6.0,14.0,74,0.00,,,0.00,23,Wunderground v.1.15,2013-09-14 13:25:00,
2013-09-14 08:30:00,59.7,51.4,29.82,South,190,8.0,9.0,74,0.00,,,0.00,26,Wunderground v.1.15,2013-09-14 13:30:00,
2013-09-14 08:35:00,59.8,51.5,29.82,SSW,196,9.0,14.0,74,0.00,,,0.00,26,Wunderground v.1.15,2013-09-14 13:35:00,
2013-09-14 08:40:00,60.1,51.4,29.81,SSW,194,11.0,12.0,73,0.00,,,0.00,30,Wunderground v.1.15,2013-09-14 13:40:00,
2013-09-14 08:45:00,60.3,51.2,29.81,South,182,15.0,16.0,72,0.00,,,0.00,33,Wunderground v.1.15,2013-09-14 13:45:00,
2013-09-14 08:50:00,60.4,51.3,29.81,South,170,11.0,12.0,72,0.00,,,0.00,44,Wunderground v.1.15,2013-09-14 13:50:00,
2013-09-14 08:55:00,60.5,51.4,29.81,South,174,15.0,19.0,72,0.00,,,0.00,56,Wunderground v.1.15,2013-09-14 13:55:00,
2013-09-14 09:00:00,60.6,51.5,29.81,South,179,16.0,17.0,72,0.00,,,0.00,77,Wunderground v.1.15,2013-09-14 14:00:00,
2013-09-14 09:05:00,60.6,51.5,29.81,South,185,10.0,17.0,72,0.00,,,0.00,77,Wunderground v.1.15,2013-09-14 14:05:00,
2013-09-14 09:10:00,60.6,51.9,29.81,South,175,12.0,14.0,73,0.00,,,0.00,67,Wunderground v.1.15,2013-09-14 14:10:00,
2013-09-14 09:15:00,60.6,51.9,29.81,South,186,8.0,17.0,73,0.00,,,0.00,77,Wunderground v.1.15,2013-09-14 14:15:00,
2013-09-14 09:20:00,60.6,51.9,29.81,South,191,14.0,14.0,73,0.00,,,0.00,97,Wunderground v.1.15,2013-09-14 14:20:00,
2013-09-14 09:25:00,60.7,52.0,29.81,South,189,10.0,17.0,73,0.00,,,0.00,116,Wunderground v.1.15,2013-09-14 14:25:00,
2013-09-14 09:30:00,60.8,52.1,29.80,South,169,13.0,17.0,73,0.00,,,0.00,132,Wunderground v.1.15,2013-09-14 14:30:00,
2013-09-14 09:35:00,60.9,52.2,29.80,South,182,11.0,17.0,73,0.00,,,0.00,116,Wunderground v.1.15,2013-09-14 14:35:00,
2013-09-14 09:40:00,60.9,52.2,29.80,South,181,9.0,12.0,73,0.00,,,0.00,120,Wunderground v.1.15,2013-09-14 14:40:00,
2013-09-14 09:45:00,60.9,52.6,29.80,SSW,192,12.0,16.0,74,0.00,,,0.00,114,Wunderground v.1.15,2013-09-14 14:45:00,
2013-09-14 09:50:00,61.0,52.3,29.80,SSE,167,14.0,15.0,73,0.00,,,0.00,132,Wunderground v.1.15,2013-09-14 14:50:00,
2013-09-14 09:55:00,61.2,52.1,29.80,South,171,7.0,19.0,72,0.00,,,0.00,139,Wunderground v.1.15,2013-09-14 14:55:00,
2013-09-14 10:00:00,61.3,52.6,29.80,SSW,193,10.0,12.0,73,0.00,,,0.00,149,Wunderground v.1.15,2013-09-14 15:00:00,
2013-09-14 10:05:00,61.6,52.5,29.79,SSW,197,11.0,19.0,72,0.00,,,0.00,200,Wunderground v.1.15,2013-09-14 15:05:00,
2013-09-14 10:10:00,62.0,53.2,29.80,South,188,17.0,17.0,73,0.00,,,0.00,218,Wunderground v.1.15,2013-09-14 15:10:00,
2013-09-14 10:15:00,62.4,53.3,29.79,SSW,206,12.0,24.0,72,0.00,,,0.00,246,Wunderground v.1.15,2013-09-14 15:15:00,
2013-09-14 10:20:00,62.8,53.6,29.80,South,180,15.0,15.0,72,0.00,,,0.00,250,Wunderground v.1.15,2013-09-14 15:20:00,
2013-09-14 10:25:00,63.2,53.3,29.80,South,171,17.0,22.0,70,0.00,,,0.00,234,Wunderground v.1.15,2013-09-14 15:25:00,
2013-09-14 10:30:00,63.3,53.0,29.79,SSW,197,15.0,19.0,69,0.00,,,0.00,290,Wunderground v.1.15,2013-09-14 15:30:00,
2013-09-14 10:35:00,63.3,53.3,29.79,SSW,197,14.0,23.0,70,0.00,,,0.00,202,Wunderground v.1.15,2013-09-14 15:35:00,
2013-09-14 10:40:00,63.4,53.4,29.79,SSW,202,13.0,16.0,70,0.00,,,0.00,209,Wunderground v.1.15,2013-09-14 15:40:00,
2013-09-14 10:45:00,63.4,53.8,29.78,South,176,12.0,21.0,71,0.00,,,0.00,255,Wunderground v.1.15,2013-09-14 15:45:00,
2013-09-14 10:50:00,63.7,53.7,29.78,South,171,22.0,22.0,70,0.00,,,0.00,276,Wunderground v.1.15,2013-09-14 15:50:00,
2013-09-14 10:55:00,64.0,53.2,29.78,SSW,202,11.0,23.0,68,0.00,,,0.00,304,Wunderground v.1.15,2013-09-14 15:55:00,
2013-09-14 11:00:00,64.0,53.6,29.78,SSW,197,11.0,16.0,69,0.00,,,0.00,262,Wunderground v.1.15,2013-09-14 16:00:00,
2013-09-14 11:05:00,64.0,53.6,29.78,SSE,162,14.0,24.0,69,0.00,,,0.00,225,Wunderground v.1.15,2013-09-14 16:05:00,
2013-09-14 11:10:00,63.8,53.4,29.78,South,183,20.0,25.0,69,0.00,,,0.00,188,Wunderground v.1.15,2013-09-14 16:10:00,
2013-09-14 11:15:00,63.6,53.6,29.78,SSW,200,9.0,25.0,70,0.00,,,0.00,243,Wunderground v.1.15,2013-09-14 16:15:00,
2013-09-14 11:20:00,63.8,53.8,29.78,South,182,13.0,14.0,70,0.00,,,0.00,276,Wunderground v.1.15,2013-09-14 16:20:00,
2013-09-14 11:25:00,64.0,53.6,29.78,South,177,15.0,24.0,69,0.00,,,0.00,367,Wunderground v.1.15,2013-09-14 16:25:00,
2013-09-14 11:30:00,64.4,54.0,29.77,South,189,18.0,18.0,69,0.00,,,0.00,473,Wunderground v.1.15,2013-09-14 16:30:00,
2013-09-14 11:35:00,65.0,55.0,29.76,SSW,202,21.0,22.0,70,0.00,,,0.00,462,Wunderground v.1.15,2013-09-14 16:35:00,
2013-09-14 11:40:00,64.9,54.1,29.77,South,186,19.0,22.0,68,0.00,,,0.00,327,Wunderground v.1.15,2013-09-14 16:40:00,
2013-09-14 11:45:00,64.8,54.4,29.77,SSW,205,13.0,26.0,69,0.00,,,0.00,292,Wunderground v.1.15,2013-09-14 16:45:00,
2013-09-14 11:50:00,65.0,54.6,29.77,SSW,207,13.0,16.0,69,0.00,,,0.00,510,Wunderground v.1.15,2013-09-14 16:50:00,
2013-09-14 11:55:00,65.9,55.4,29.77,South,190,20.0,23.0,69,0.00,,,0.00,485,Wunderground v.1.15,2013-09-14 16:55:00,
2013-09-14 12:00:00,66.1,55.6,29.76,South,169,17.0,19.0,69,0.00,,,0.00,387,Wunderground v.1.15,2013-09-14 17:00:00,
2013-09-14 12:05:00,65.9,54.6,29.76,South,178,16.0,24.0,67,0.00,,,0.00,334,Wunderground v.1.15,2013-09-14 17:05:00,
2013-09-14 12:10:00,66.0,54.3,29.76,South,185,16.0,18.0,66,0.00,,,0.00,353,Wunderground v.1.15,2013-09-14 17:10:00,
2013-09-14 12:15:00,66.3,55.8,29.76,South,190,7.0,21.0,69,0.00,,,0.00,381,Wunderground v.1.15,2013-09-14 17:15:00,
2013-09-14 12:20:00,66.6,54.9,29.75,South,191,14.0,18.0,66,0.00,,,0.00,401,Wunderground v.1.15,2013-09-14 17:20:00,
2013-09-14 12:25:00,66.9,55.2,29.75,South,186,13.0,26.0,66,0.00,,,0.00,394,Wunderground v.1.15,2013-09-14 17:25:00,
2013-09-14 12:30:00,66.9,54.3,29.76,SSW,192,15.0,19.0,64,0.00,,,0.00,346,Wunderground v.1.15,2013-09-14 17:30:00,
2013-09-14 12:35:00,67.0,54.8,29.76,SW,216,13.0,25.0,65,0.00,,,0.00,367,Wunderground v.1.15,2013-09-14 17:35:00,
2013-09-14 12:40:00,67.1,54.9,29.75,SW,214,21.0,21.0,65,0.00,,,0.00,359,Wunderground v.1.15,2013-09-14 17:40:00,
2013-09-14 12:45:00,67.3,55.1,29.75,SSW,200,12.0,21.0,65,0.00,,,0.00,322,Wunderground v.1.15,2013-09-14 17:45:00,
2013-09-14 12:50:00,67.4,54.8,29.75,SSW,206,13.0,14.0,64,0.00,,,0.00,260,Wunderground v.1.15,2013-09-14 17:50:00,
2013-09-14 12:55:00,67.5,55.3,29.75,SSW,198,15.0,19.0,65,0.00,,,0.00,348,Wunderground v.1.15,2013-09-14 17:55:00,
2013-09-14 13:00:00,68.0,55.4,29.75,SSW,213,11.0,15.0,64,0.00,,,0.00,355,Wunderground v.1.15,2013-09-14 18:00:00,
2013-09-14 13:05:00,68.1,55.0,29.75,SSW,193,21.0,22.0,63,0.00,,,0.00,292,Wunderground v.1.15,2013-09-14 18:05:00,
2013-09-14 13:10:00,67.9,54.8,29.74,SSW,203,9.0,15.0,63,0.00,,,0.00,278,Wunderground v.1.15,2013-09-14 18:10:00,
2013-09-14 13:15:00,68.2,55.6,29.75,SSW,211,13.0,20.0,64,0.00,,,0.00,420,Wunderground v.1.15,2013-09-14 18:15:00,
2013-09-14 13:20:00,68.5,55.4,29.74,South,185,21.0,22.0,63,0.00,,,0.00,292,Wunderground v.1.15,2013-09-14 18:20:00,
2013-09-14 13:25:00,68.1,55.0,29.74,South,173,15.0,23.0,63,0.00,,,0.00,299,Wunderground v.1.15,2013-09-14 18:25:00,
2013-09-14 13:30:00,67.9,55.3,29.74,SSW,194,20.0,20.0,64,0.00,,,0.00,202,Wunderground v.1.15,2013-09-14 18:30:00,
2013-09-14 13:35:00,67.7,55.1,29.74,SSE,161,16.0,25.0,64,0.00,,,0.00,308,Wunderground v.1.15,2013-09-14 18:35:00,
2013-09-14 13:40:00,68.0,55.8,29.74,SSW,209,19.0,19.0,65,0.00,,,0.00,431,Wunderground v.1.15,2013-09-14 18:40:00,
2013-09-14 13:45:00,68.2,56.4,29.74,South,176,15.0,21.0,66,0.00,,,0.00,292,Wunderground v.1.15,2013-09-14 18:45:00,
2013-09-14 13:50:00,68.1,56.3,29.73,SSW,204,8.0,15.0,66,0.00,,,0.00,406,Wunderground v.1.15,2013-09-14 18:50:00,
2013-09-14 13:55:00,68.6,56.8,29.73,SSW,194,13.0,20.0,66,0.00,,,0.00,376,Wunderground v.1.15,2013-09-14 18:55:00,
2013-09-14 14:00:00,69.2,56.9,29.73,South,186,18.0,25.0,65,0.00,,,0.00,429,Wunderground v.1.15,2013-09-14 19:00:00,
2013-09-14 14:05:00,69.6,56.4,29.72,SSE,165,19.0,28.0,63,0.00,,,0.00,571,Wunderground v.1.15,2013-09-14 19:05:00,
2013-09-14 14:10:00,69.9,56.7,29.72,SSW,200,11.0,20.0,63,0.00,,,0.00,438,Wunderground v.1.15,2013-09-14 19:10:00,
2013-09-14 14:15:00,70.2,57.0,29.72,SSW,199,17.0,25.0,63,0.00,,,0.00,512,Wunderground v.1.15,2013-09-14 19:15:00,
2013-09-14 14:20:00,70.6,57.8,29.72,South,189,14.0,18.0,64,0.00,,,0.00,381,Wunderground v.1.15,2013-09-14 19:20:00,
2013-09-14 14:25:00,70.1,56.9,29.72,South,186,17.0,28.0,63,0.00,,,0.00,376,Wunderground v.1.15,2013-09-14 19:25:00,
2013-09-14 14:30:00,70.0,57.3,29.71,South,191,18.0,18.0,64,0.00,,,0.00,413,Wunderground v.1.15,2013-09-14 19:30:00,
2013-09-14 14:35:00,70.1,57.4,29.71,SSW,204,13.0,24.0,64,0.00,,,0.00,454,Wunderground v.1.15,2013-09-14 19:35:00,
2013-09-14 14:40:00,70.5,57.3,29.71,SSW,211,20.0,27.0,63,0.00,,,0.00,497,Wunderground v.1.15,2013-09-14 19:40:00,
2013-09-14 14:45:00,70.1,56.5,29.71,South,180,21.0,27.0,62,0.00,,,0.00,294,Wunderground v.1.15,2013-09-14 19:45:00,
2013-09-14 14:50:00,69.6,56.4,29.70,South,189,16.0,18.0,63,0.00,,,0.00,246,Wunderground v.1.15,2013-09-14 19:50:00,
2013-09-14 14:55:00,69.6,56.9,29.70,SSW,209,20.0,32.0,64,0.00,,,0.00,403,Wunderground v.1.15,2013-09-14 19:55:00,
2013-09-14 15:00:00,69.6,56.9,29.69,South,185,24.0,24.0,64,0.00,,,0.00,232,Wunderground v.1.15,2013-09-14 20:00:00,
2013-09-14 15:05:00,69.4,57.1,29.69,South,189,22.0,26.0,65,0.00,,,0.00,281,Wunderground v.1.15,2013-09-14 20:05:00,
2013-09-14 15:10:00,69.8,57.9,29.69,SSW,198,16.0,19.0,66,0.00,,,0.00,408,Wunderground v.1.15,2013-09-14 20:10:00,
2013-09-14 15:15:00,70.2,57.4,29.69,South,187,20.0,27.0,64,0.00,,,0.00,396,Wunderground v.1.15,2013-09-14 20:15:00,
2013-09-14 15:20:00,70.4,57.2,29.69,South,191,18.0,28.0,63,0.00,,,0.00,455,Wunderground v.1.15,2013-09-14 20:20:00,
2013-09-14 15:25:00,69.7,57.0,29.69,South,178,14.0,31.0,64,0.00,,,0.00,357,Wunderground v.1.15,2013-09-14 20:25:00,
2013-09-14 15:30:00,70.2,57.4,29.69,SSW,196,21.0,21.0,64,0.00,,,0.00,573,Wunderground v.1.15,2013-09-14 20:30:00,
2013-09-14 15:35:00,70.7,58.4,29.68,South,178,18.0,29.0,65,0.00,,,0.00,383,Wunderground v.1.15,2013-09-14 20:35:00,
2013-09-14 15:40:00,71.1,58.3,29.68,SSW,196,15.0,20.0,64,0.00,,,0.00,724,Wunderground v.1.15,2013-09-14 20:40:00,
2013-09-14 15:45:00,71.4,58.6,29.68,South,182,21.0,29.0,64,0.00,,,0.00,390,Wunderground v.1.15,2013-09-14 20:45:00,
2013-09-14 15:50:00,70.9,58.1,29.68,SSW,195,18.0,23.0,64,0.00,,,0.00,276,Wunderground v.1.15,2013-09-14 20:50:00,
2013-09-14 15:55:00,70.5,58.2,29.68,South,191,17.0,23.0,65,0.00,,,0.00,234,Wunderground v.1.15,2013-09-14 20:55:00,
2013-09-14 16:00:00,70.4,58.5,29.68,SW,223,12.0,19.0,66,0.00,,,0.00,360,Wunderground v.1.15,2013-09-14 21:00:00,
2013-09-14 16:05:00,71.0,59.5,29.67,South,184,19.0,27.0,67,0.00,,,0.00,548,Wunderground v.1.15,2013-09-14 21:05:00,
2013-09-14 16:10:00,71.9,59.9,29.67,SSW,205,16.0,17.0,66,0.00,,,0.00,710,Wunderground v.1.15,2013-09-14 21:10:00,
2013-09-14 16:15:00,72.2,58.9,29.67,SW,217,19.0,27.0,63,0.00,,,0.00,452,Wunderground v.1.15,2013-09-14 21:15:00,
2013-09-14 16:20:00,71.4,58.1,29.67,South,188,14.0,21.0,63,0.00,,,0.00,626,Wunderground v.1.15,2013-09-14 21:20:00,
2013-09-14 16:25:00,72.0,60.0,29.67,South,188,21.0,22.0,66,0.00,,,0.00,633,Wunderground v.1.15,2013-09-14 21:25:00,
2013-09-14 16:31:00,72.0,60.0,29.66,SSW,213,21.0,23.0,66,0.00,,,0.00,598,Wunderground v.1.15,2013-09-14 21:31:00,
2013-09-14 16:36:00,72.2,60.6,29.66,SSW,208,17.0,26.0,67,0.00,,,0.00,573,Wunderground v.1.15,2013-09-14 21:36:00,
2013-09-14 16:41:00,72.3,59.9,29.66,South,179,14.0,21.0,65,0.00,,,0.00,540,Wunderground v.1.15,2013-09-14 21:41:00,
2013-09-14 16:46:00,72.3,60.3,29.66,SW,215,23.0,24.0,66,0.00,,,0.00,515,Wunderground v.1.15,2013-09-14 21:46:00,
2013-09-14 16:51:00,72.3,61.1,29.66,South,188,25.0,25.0,68,0.00,,,0.00,489,Wunderground v.1.15,2013-09-14 21:51:00,
2013-09-14 16:56:00,72.0,60.0,29.66,SSW,197,17.0,26.0,66,0.00,,,0.00,475,Wunderground v.1.15,2013-09-14 21:56:00,
2013-09-14 17:01:00,71.9,60.3,29.66,South,182,12.0,18.0,67,0.00,,,0.00,459,Wunderground v.1.15,2013-09-14 22:01:00,
2013-09-14 17:06:00,72.0,60.0,29.66,SSW,193,13.0,23.0,66,0.00,,,0.00,438,Wunderground v.1.15,2013-09-14 22:06:00,
2013-09-14 17:11:00,72.1,60.1,29.66,SSW,200,12.0,18.0,66,0.00,,,0.00,369,Wunderground v.1.15,2013-09-14 22:11:00,
2013-09-14 17:16:00,72.0,60.0,29.66,SSW,201,15.0,24.0,66,0.00,,,0.00,380,Wunderground v.1.15,2013-09-14 22:16:00,
2013-09-14 17:21:00,72.0,60.0,29.66,SSW,199,17.0,24.0,66,0.00,,,0.00,338,Wunderground v.1.15,2013-09-14 22:21:00,
2013-09-14 17:26:00,71.6,59.6,29.66,SSW,209,16.0,26.0,66,0.00,,,0.00,239,Wunderground v.1.15,2013-09-14 22:26:00,
2013-09-14 17:31:00,71.5,60.0,29.67,SSW,209,10.0,17.0,67,0.00,,,0.00,306,Wunderground v.1.15,2013-09-14 22:31:00,
2013-09-14 17:36:00,71.3,59.4,29.67,SSW,202,14.0,23.0,66,0.00,,,0.00,188,Wunderground v.1.15,2013-09-14 22:36:00,
2013-09-14 17:41:00,71.2,59.7,29.67,SSW,206,20.0,20.0,67,0.00,,,0.00,199,Wunderground v.1.15,2013-09-14 22:41:00,
2013-09-14 17:46:00,71.2,59.7,29.66,SSW,202,12.0,25.0,67,0.00,,,0.00,290,Wunderground v.1.15,2013-09-14 22:46:00,
2013-09-14 17:49:00,71.3,60.2,29.67,SW,219,15.0,15.0,68,0.00,,,0.00,299,Wunderground v.1.15,2013-09-14 22:49:00,
2013-09-14 17:54:00,71.5,60.0,29.66,South,178,14.0,20.0,67,0.00,,,0.00,281,Wunderground v.1.15,2013-09-14 22:54:00,
2013-09-14 17:59:00,71.4,59.9,29.67,SSW,207,12.0,13.0,67,0.00,,,0.00,190,Wunderground v.1.15,2013-09-14 22:59:00,
2013-09-14 18:04:00,71.1,60.0,29.67,South,179,12.0,18.0,68,0.00,,,0.00,169,Wunderground v.1.15,2013-09-14 23:04:00,
2013-09-14 18:09:00,71.2,60.5,29.67,SSW,198,8.0,19.0,69,0.00,,,0.00,236,Wunderground v.1.15,2013-09-14 23:09:00,
2013-09-14 18:14:00,71.5,60.8,29.66,SSW,201,18.0,19.0,69,0.00,,,0.00,213,Wunderground v.1.15,2013-09-14 23:14:00,
2013-09-14 18:19:00,71.6,60.9,29.66,SSW,193,8.0,19.0,69,0.00,,,0.00,118,Wunderground v.1.15,2013-09-14 23:19:00,
2013-09-14 18:24:00,71.6,60.5,29.66,South,179,16.0,20.0,68,0.00,,,0.00,171,Wunderground v.1.15,2013-09-14 23:24:00,
2013-09-14 18:29:00,71.4,60.7,29.66,South,188,12.0,20.0,69,0.00,,,0.00,58,Wunderground v.1.15,2013-09-14 23:29:00,
2013-09-14 18:34:00,71.0,60.3,29.67,SSW,201,11.0,13.0,69,0.00,,,0.00,67,Wunderground v.1.15,2013-09-14 23:34:00,
2013-09-14 18:39:00,71.1,60.4,29.67,South,180,10.0,19.0,69,0.00,,,0.00,81,Wunderground v.1.15,2013-09-14 23:39:00,
2013-09-14 18:44:00,71.2,60.9,29.66,South,184,13.0,15.0,70,0.00,,,0.00,67,Wunderground v.1.15,2013-09-14 23:44:00,
2013-09-14 18:49:00,71.0,60.7,29.66,South,185,10.0,19.0,70,0.00,,,0.00,69,Wunderground v.1.15,2013-09-14 23:49:00,
2013-09-14 18:54:00,71.0,60.7,29.66,SSW,204,17.0,19.0,70,0.00,,,0.00,63,Wunderground v.1.15,2013-09-14 23:54:00,
2013-09-14 18:59:00,70.8,60.9,29.66,South,179,10.0,21.0,71,0.00,,,0.00,56,Wunderground v.1.15,2013-09-14 23:59:00,
2013-09-14 19:04:00,70.6,60.7,29.66,SSW,199,11.0,16.0,71,0.00,,,0.00,46,Wunderground v.1.15,2013-09-15 00:04:00,
2013-09-14 19:09:00,70.5,60.6,29.66,SSW,198,12.0,17.0,71,0.00,,,0.00,37,Wunderground v.1.15,2013-09-15 00:09:00,
2013-09-14 19:14:00,70.4,60.5,29.66,SSW,195,14.0,21.0,71,0.00,,,0.00,32,Wunderground v.1.15,2013-09-15 00:14:00,
2013-09-14 19:19:00,70.3,60.8,29.65,SSW,204,13.0,21.0,72,0.00,,,0.00,18,Wunderground v.1.15,2013-09-15 00:19:00,
2013-09-14 19:24:00,70.0,60.6,29.66,SSW,196,10.0,17.0,72,0.00,,,0.00,11,Wunderground v.1.15,2013-09-15 00:24:00,
2013-09-14 19:29:00,69.6,60.6,29.66,South,179,10.0,17.0,73,0.00,,,0.00,9,Wunderground v.1.15,2013-09-15 00:29:00,
2013-09-14 19:34:00,69.4,60.8,29.65,SSW,194,11.0,14.0,74,0.00,,,0.00,7,Wunderground v.1.15,2013-09-15 00:34:00,
2013-09-14 19:39:00,69.2,60.6,29.65,SSW,195,6.0,14.0,74,0.00,,,0.00,0,Wunderground v.1.15,2013-09-15 00:39:00,
2013-09-14 19:44:00,68.9,60.6,29.65,South,180,10.0,14.0,75,0.00,,,0.00,0,Wunderground v.1.15,2013-09-15 00:44:00,
2013-09-14 19:49:00,68.7,60.5,29.65,SSW,208,7.0,14.0,75,0.00,,,0.00,0,Wunderground v.1.15,2013-09-15 00:49:00,
2013-09-14 19:54:00,68.5,60.6,29.65,SSW,196,7.0,10.0,76,0.00,,,0.00,0,Wunderground v.1.15,2013-09-15 00:54:00,
2013-09-14 19:59:00,68.3,60.8,29.65,South,185,10.0,11.0,77,0.00,,,0.00,0,Wunderground v.1.15,2013-09-15 00:59:00,
2013-09-14 20:04:00,68.0,60.5,29.65,South,190,11.0,12.0,77,0.00,,,0.00,0,Wunderground v.1.15,2013-09-15 01:04:00,
2013-09-14 20:09:00,67.8,60.3,29.65,South,190,9.0,13.0,77,0.00,,,0.00,0,Wunderground v.1.15,2013-09-15 01:09:00,
2013-09-14 20:14:00,67.9,60.8,29.65,South,189,10.0,14.0,78,0.00,,,0.00,0,Wunderground v.1.15,2013-09-15 01:14:00,
2013-09-14 20:19:00,67.9,60.8,29.65,SSW,192,7.0,14.0,78,0.00,,,0.00,0,Wunderground v.1.15,2013-09-15 01:19:00,
2013-09-14 20:24:00,67.9,60.4,29.65,South,177,7.0,11.0,77,0.00,,,0.00,0,Wunderground v.1.15,2013-09-15 01:24:00,
2013-09-14 20:29:00,67.6,60.5,29.65,South,178,9.0,13.0,78,0.00,,,0.00,0,Wunderground v.1.15,2013-09-15 01:29:00,
2013-09-14 20:34:00,67.4,60.3,29.65,South,184,7.0,11.0,78,0.00,,,0.00,0,Wunderground v.1.15,2013-09-15 01:34:00,
2013-09-14 20:39:00,67.1,60.4,29.65,South,177,8.0,11.0,79,0.00,,,0.00,0,Wunderground v.1.15,2013-09-15 01:39:00,
2013-09-14 20:44:00,67.0,60.3,29.65,South,188,8.0,10.0,79,0.00,,,0.00,0,Wunderground v.1.15,2013-09-15 01:44:00,
2013-09-14 20:49:00,66.8,60.4,29.65,South,187,8.0,10.0,80,0.00,,,0.00,0,Wunderground v.1.15,2013-09-15 01:49:00,
2013-09-14 20:54:00,66.8,60.1,29.65,South,188,9.0,12.0,79,0.00,,,0.00,0,Wunderground v.1.15,2013-09-15 01:54:00,
2013-09-14 20:59:00,66.6,60.2,29.66,South,185,9.0,12.0,80,0.00,,,0.00,0,Wunderground v.1.15,2013-09-15 01:59:00,
2013-09-14 21:04:00,66.4,60.0,29.66,South,189,7.0,12.0,80,0.00,,,0.00,0,Wunderground v.1.15,2013-09-15 02:04:00,
2013-09-14 21:09:00,66.1,60.1,29.66,SSW,192,9.0,12.0,81,0.00,,,0.00,0,Wunderground v.1.15,2013-09-15 02:09:00,
2013-09-14 21:14:00,66.0,60.0,29.65,SSW,205,9.0,10.0,81,0.00,,,0.00,0,Wunderground v.1.15,2013-09-15 02:14:00,
2013-09-14 21:19:00,65.9,60.2,29.65,South,178,12.0,15.0,82,0.00,,,0.00,0,Wunderground v.1.15,2013-09-15 02:19:00,
2013-09-14 21:24:00,65.9,60.2,29.66,South,190,11.0,14.0,82,0.00,,,0.00,0,Wunderground v.1.15,2013-09-15 02:24:00,
2013-09-14 21:29:00,65.8,60.2,29.66,South,189,7.0,14.0,82,0.00,,,0.00,0,Wunderground v.1.15,2013-09-15 02:29:00,
2013-09-14 21:34:00,65.8,60.2,29.66,South,189,7.0,11.0,82,0.00,,,0.00,0,Wunderground v.1.15,2013-09-15 02:34:00,
2013-09-14 21:39:00,65.8,60.2,29.66,South,186,5.0,11.0,82,0.00,,,0.00,0,Wunderground v.1.15,2013-09-15 02:39:00,
2013-09-14 21:44:00,65.8,60.2,29.66,SSW,201,8.0,12.0,82,0.00,,,0.00,0,Wunderground v.1.15,2013-09-15 02:44:00,
2013-09-14 21:49:00,65.9,60.2,29.66,South,186,8.0,12.0,82,0.00,,,0.00,0,Wunderground v.1.15,2013-09-15 02:49:00,
2013-09-14 21:54:00,66.3,60.6,29.65,SSW,192,7.0,14.0,82,0.00,,,0.00,0,Wunderground v.1.15,2013-09-15 02:54:00,
2013-09-14 21:59:00,66.5,60.8,29.65,SSW,194,7.0,14.0,82,0.00,,,0.00,0,Wunderground v.1.15,2013-09-15 02:59:00,
2013-09-14 22:04:00,66.4,60.7,29.66,South,175,5.0,10.0,82,0.00,,,0.00,0,Wunderground v.1.15,2013-09-15 03:04:00,
2013-09-14 22:09:00,66.1,60.4,29.65,South,184,5.0,10.0,82,0.00,,,0.00,0,Wunderground v.1.15,2013-09-15 03:09:00,
2013-09-14 22:14:00,65.8,60.2,29.65,SSW,196,7.0,10.0,82,0.00,,,0.00,0,Wunderground v.1.15,2013-09-15 03:14:00,
2013-09-14 22:19:00,65.6,60.3,29.65,SSW,198,7.0,11.0,83,0.00,,,0.00,0,Wunderground v.1.15,2013-09-15 03:19:00,
2013-09-14 22:24:00,65.7,60.4,29.65,SSW,205,7.0,9.0,83,0.00,,,0.00,0,Wunderground v.1.15,2013-09-15 03:24:00,
2013-09-14 22:29:00,65.8,60.5,29.65,South,186,10.0,12.0,83,0.00,,,0.00,0,Wunderground v.1.15,2013-09-15 03:29:00,
2013-09-14 22:34:00,65.9,60.6,29.66,SSW,198,6.0,12.0,83,0.00,,,0.00,0,Wunderground v.1.15,2013-09-15 03:34:00,
2013-09-14 22:39:00,65.9,60.6,29.66,South,187,7.0,12.0,83,0.00,,,0.00,0,Wunderground v.1.15,2013-09-15 03:39:00,
2013-09-14 22:44:00,65.7,60.4,29.66,SSW,196,7.0,11.0,83,0.00,,,0.00,0,Wunderground v.1.15,2013-09-15 03:44:00,
2013-09-14 22:49:00,65.6,60.3,29.66,South,182,7.0,11.0,83,0.00,,,0.00,0,Wunderground v.1.15,2013-09-15 03:49:00,
2013-09-14 22:54:00,65.1,60.1,29.66,SSW,194,7.0,7.0,84,0.00,,,0.00,0,Wunderground v.1.15,2013-09-15 03:54:00,
2013-09-14 22:59:00,65.0,60.0,29.66,SSW,209,7.0,7.0,84,0.00,,,0.00,0,Wunderground v.1.15,2013-09-15 03:59:00,
2013-09-14 23:01:00,65.0,60.0,29.66,SSW,211,5.0,7.0,84,0.00,,,0.00,0,Wunderground v.1.15,2013-09-15 04:01:00,
2013-09-14 23:03:00,64.9,59.9,29.66,SSW,209,5.0,7.0,84,0.00,,,0.00,0,Wunderground v.1.15,2013-09-15 04:03:00,
2013-09-14 23:08:00,64.8,59.9,29.67,SSW,209,5.0,7.0,84,0.00,,,0.00,0,Wunderground v.1.15,2013-09-15 04:08:00,
2013-09-14 23:13:00,64.7,59.8,29.67,SSW,207,5.0,6.0,84,0.00,,,0.00,0,Wunderground v.1.15,2013-09-15 04:13:00,
2013-09-14 23:18:00,64.4,59.8,29.67,SSW,207,3.0,7.0,85,0.00,,,0.00,0,Wunderground v.1.15,2013-09-15 04:18:00,
2013-09-14 23:23:00,64.3,59.7,29.67,SSW,207,2.0,6.0,85,0.00,,,0.00,0,Wunderground v.1.15,2013-09-15 04:23:00,
2013-09-14 23:28:00,64.1,59.5,29.67,SSW,207,4.0,6.0,85,0.00,,,0.00,0,Wunderground v.1.15,2013-09-15 04:28:00,
2013-09-14 23:33:00,63.8,59.2,29.67,SSW,207,3.0,4.0,85,0.00,,,0.00,0,Wunderground v.1.15,2013-09-15 04:33:00,
2013-09-14 23:38:00,63.5,58.9,29.67,SSW,207,2.0,6.0,85,0.00,,,0.00,0,Wunderground v.1.15,2013-09-15 04:38:00,
2013-09-14 23:43:00,63.2,58.9,29.67,SSW,207,2.0,5.0,86,0.00,,,0.00,0,Wunderground v.1.15,2013-09-15 04:43:00,
2013-09-14 23:48:00,63.5,59.2,29.67,SSW,207,4.0,5.0,86,0.00,,,0.00,0,Wunderground v.1.15,2013-09-15 04:48:00,
2013-09-14 23:53:00,63.5,59.2,29.68,SSW,207,3.0,5.0,86,0.00,,,0.00,0,Wunderground v.1.15,2013-09-15 04:53:00,
2013-09-14 23:58:00,63.4,59.1,29.67,SSW,207,5.0,6.0,86,0.00,,,0.00,0,Wunderground v.1.15,2013-09-15 04:58:00,